Location: Unspecified
(0.0000°N, 0.0000°E)
Time: 19:37:52
(UTC+00:00)

Hubble Space Telescope - Pass Details

Date: 22 October 2021
Orbit: 535 x 539 km, 28.5° (Epoch: 24 October)

Event Time Altitude Azimuth Distance (km) Brightness Sun altitude
Rises 19:42:45 0° 273° (W) 2,662 5.4 -29.0°
Reaches altitude 10° 19:45:53 10° 298° (WNW) 1,770 4.0 -29.7°
Enters shadow 19:47:05 13° 314° (NW) 1,571 3.4 -30.0°
